Wind_Speed
4 4 4 4 4 4 4 3 3 4 3 3 5 6 6 7 8 8 7 8 8 8 8 8 8 8 9 9 9 9 10 10 10 10 11 11 11 10 10 9 8 8 8
5 5 5 5 4 3 3 4 4 4 4 4 5 7 7 7 8 8 8 8 8 9 9 9 9 9 10 9 10 10 11 11 11 11 11 12 12 12 11 11 10 10 9
5 6 5 5 4 4 4 4 4 5 5 6 7 7 8 8 8 7 8 8 8 9 10 10 10 11 10 10 10 11 11 11 11 11 11 12 13 13 12 12 12 12 11
6 6 6 5 5 5 5 5 5 6 6 6 7 8 8 9 9 8 8 8 9 9 10 11 11 12 12 11 11 11 12 12 12 12 12 12 13 13 13 13 13 12 12
6 7 6 6 6 6 7 7 7 7 7 7 7 8 8 8 9 9 9 9 9 9 10 11 12 12 12 12 12 12 12 13 13 13 13 13 13 14 13 13 13 13 13
8 8 7 7 7 7 8 8 8 8 8 8 7 8 8 8 9 10 10 10 11 11 11 11 12 12 12 12 13 12 13 13 13 13 13 13 13 14 14 14 14 14 14
9 8 7 8 8 9 9 9 9 9 9 8 8 9 8 9 10 10 11 12 12 12 12 12 12 13 13 13 13 12 13 13 13 13 13 13 14 14 15 15 15 15 15
10 9 8 9 9 9 10 10 10 10 10 10 9 8 8 9 10 10 11 12 12 12 13 13 13 14 14 14 14 14 14 14 14 14 14 15 15 14 15 15 16 16 16
11 10 10 10 10 10 11 11 11 10 11 11 11 10 9 9 10 11 11 12 12 12 13 13 14 14 15 15 15 14 14 15 15 15 16 16 16 16 16 16 17 17 17
11 11 10 10 10 10 11 11 11 11 10 11 11 11 11 11 11 12 13 13 12 12 13 14 15 16 15 15 16 15 15 15 15 16 16 16 17 17 17 18 18 18 18
12 12 11 11 11 11 11 11 11 11 11 12 12 12 12 12 13 14 14 14 14 14 13 14 14 14 14 15 16 16 16 16 16 17 17 18 18 18 18 18 18 18 19
12 12 13 12 13 13 13 13 13 13 13 13 13 14 14 14 15 15 14 15 15 15 15 15 15 15 16 16 16 16 17 18 18 18 19 19 19 19 18 19 19 19 19
13 13 13 13 13 13 13 14 14 14 14 14 15 15 15 16 16 16 16 16 16 16 16 17 17 17 17 17 17 17 19 19 20 20 21 20 20 20 19 20 20 20 20
14 15 14 13 13 13 13 14 15 15 15 15 16 16 16 17 17 17 17 17 16 17 17 18 19 19 19 19 18 19 19 20 20 21 21 21 21 21 21 21 21 21 21
16 16 15 15 15 15 15 15 15 15 16 17 17 17 18 18 17 18 18 18 17 17 17 18 19 20 21 21 21 20 21 21 21 22 23 23 22 22 22 23 23 23 23
16 16 16 16 16 16 16 16 16 16 17 17 18 19 19 19 19 19 20 20 20 19 19 19 20 21 22 22 21 21 21 22 22 23 23 23 24 24 24 24 25 25 25
18 18 18 17 17 17 17 17 16 17 18 18 19 19 19 19 20 20 21 21 22 22 21 20 21 21 22 22 23 23 23 22 23 23 23 24 25 26 26 26 27 28 28
20 19 19 19 18 18 19 19 19 19 19 20 20 20 20 21 21 22 22 23 23 23 23 23 22 22 22 23 24 25 25 24 24 24 24 25 26 27 28 28 29 30 30
22 21 20 20 20 20 20 20 20 20 20 21 21 22 22 22 22 23 23 23 24 24 24 24 24 24 24 24 25 25 26 26 26 26 26 27 27 28 28 29 30 31 31
23 22 22 22 22 21 21 21 21 22 22 22 23 23 23 23 23 23 23 24 24 25 25 25 25 25 25 25 26 26 27 27 27 28 28 29 29 29 29 30 31 32 32
24 24 24 23 22 22 22 22 22 23 23 24 24 24 24 24 24 25 25 24 25 25 25 26 25 25 26 26 27 27 27 28 27 28 29 29 30 30 30 31 32 32 33
25 25 24 24 23 23 24 24 24 24 24 24 24 24 24 24 24 24 24 24 24 25 26 26 26 26 25 26 26 26 27 27 28 28 28 28 29 30 30 30 30 31 32
26 25 25 24 24 24 24 24 24 24 24 24 25 25 25 25 24 24 24 24 25 25 26 26 26 26 26 25 26 26 26 27 28 28 29 28 28 28 29 30 30 31 32
26 26 25 24 24 24 25 25 25 24 25 25 26 26 25 25 25 25 25 26 26 26 26 26 27 27 26 26 25 25 26 26 27 28 29 29 30 30 30 30 30 31 31
27 27 26 26 26 26 26 26 25 25 26 27 26 26 26 26 26 26 26 26 26 26 26 26 26 26 26 26 26 26 26 26 26 28 29 29 30 30 30 30 30 31 31
27 27 27 27 27 27 27 27 26 26 27 27 27 27 27 27 27 27 27 27 26 26 26 26 26 26 26 27 27 27 27 27 27 28 28 28 29 30 30 30 30 31 31
Wind_Direction
348 345 350 355 340 334 335 329 311 300 302 285 280 282 276 268 269 273 267 266 263 260 258 256 259 257 256 259 261 258 256 254 251 250 247 247 247 251 252 249 248 243 243
358 356 1 359 351 341 329 322 310 301 303 287 279 279 279 273 274 275 272 273 269 263 261 260 262 261 259 257 258 257 256 256 255 253 251 248 248 251 248 247 248 245 245
347 343 348 350 343 336 326 320 308 298 298 290 286 281 281 279 279 273 272 274 271 266 264 263 266 267 264 258 259 260 258 255 255 255 255 252 252 252 248 245 249 246 246
348 344 342 334 329 327 320 312 303 299 298 296 287 286 288 280 276 273 273 271 270 268 264 262 265 266 266 261 262 262 258 257 256 257 257 257 256 254 252 247 247 245 244
343 338 333 327 319 317 316 312 305 301 299 297 295 291 291 285 274 268 267 268 269 267 265 262 262 264 264 262 262 264 260 257 256 258 259 260 260 255 254 250 246 245 243
335 328 323 320 315 311 309 307 305 302 299 294 291 291 289 286 277 269 265 267 268 267 264 261 261 263 262 262 264 262 259 258 258 258 258 259 259 257 251 250 247 247 244
331 327 320 317 315 312 307 303 301 301 297 294 289 286 286 281 277 271 269 271 274 271 266 263 262 261 262 261 261 260 258 258 257 257 258 257 257 258 251 249 249 247 247
330 325 319 314 313 310 306 302 299 298 297 295 289 288 287 285 285 283 280 279 278 272 266 263 262 260 262 262 260 260 258 257 258 257 257 257 255 256 253 249 249 249 248
328 321 319 311 309 308 305 302 300 299 299 294 289 288 286 286 287 286 286 286 283 278 270 267 266 265 261 260 257 257 257 258 259 257 257 256 255 255 253 250 249 250 250
323 317 316 311 308 308 307 302 298 299 300 299 294 291 286 282 284 286 287 285 284 278 274 272 272 268 263 260 260 260 257 258 259 258 258 256 256 256 254 250 249 250 252
322 320 316 313 311 309 307 302 298 296 297 295 295 295 291 290 290 288 286 284 282 278 276 274 274 275 269 268 268 264 260 260 261 261 261 259 257 256 254 252 249 250 252
320 321 318 314 312 309 306 303 300 297 298 297 294 294 293 292 292 290 285 280 278 277 275 274 276 276 275 278 274 267 261 261 262 262 261 260 257 255 254 254 251 250 253
315 317 316 312 312 311 309 307 304 301 301 298 295 294 292 291 290 288 286 281 277 275 275 275 275 275 273 276 276 271 266 262 262 263 260 258 255 254 256 256 253 251 254
311 311 311 309 308 308 307 307 304 301 298 296 295 294 291 288 288 287 286 284 279 276 274 274 276 274 273 273 274 273 269 266 263 263 261 257 255 255 256 257 255 252 254
310 308 308 308 307 307 305 304 301 298 297 297 297 295 291 289 288 287 285 283 280 277 276 276 276 276 276 273 274 273 271 270 266 263 261 258 256 256 256 258 258 255 254
308 307 307 308 308 308 306 301 296 296 298 298 297 294 292 288 286 285 284 283 282 281 279 277 277 276 276 275 274 273 273 272 268 266 264 260 257 257 257 258 259 257 256
307 306 306 305 306 305 304 303 300 297 297 297 296 296 295 293 291 290 288 286 284 282 281 279 278 277 276 275 275 275 275 274 269 267 266 263 260 259 259 260 260 259 258
303 304 305 303 304 303 303 302 301 300 299 299 299 299 297 296 294 292 289 287 284 282 280 279 278 277 276 276 275 273 273 274 271 267 265 263 263 261 260 261 261 262 260
302 302 300 298 299 300 300 300 301 301 300 299 299 298 298 297 295 293 289 287 285 283 281 280 278 277 276 276 275 274 271 271 270 269 266 264 263 262 261 262 262 262 261
304 302 300 297 296 295 297 297 298 299 298 297 297 296 296 295 294 293 290 288 286 285 282 281 280 279 277 276 276 276 273 270 269 268 267 266 265 264 264 264 263 262 262
303 300 300 298 295 293 294 295 295 297 297 296 296 296 296 294 293 292 290 288 287 285 283 282 280 279 277 276 275 275 274 271 270 269 268 267 266 266 266 265 265 263 262
301 300 300 298 296 295 293 294 295 296 297 297 296 296 295 294 293 293 291 290 289 286 284 283 282 280 278 277 275 275 274 272 269 268 267 267 267 267 267 266 265 264 263
300 298 297 296 295 296 297 295 296 295 297 298 297 296 295 295 294 293 293 291 289 288 285 283 282 282 280 277 275 275 275 274 271 268 266 266 267 268 267 267 268 266 264
299 297 296 294 293 295 296 295 297 297 299 298 297 296 295 294 294 294 293 292 290 288 286 284 281 280 280 278 277 276 275 274 273 271 268 267 266 267 269 269 268 266 265
297 296 295 293 293 293 293 293 294 295 296 296 296 296 295 295 294 293 292 292 290 289 286 284 282 280 278 277 276 276 277 277 275 273 270 269 268 269 269 269 267 266 265
294 294 293 293 292 291 291 292 293 293 294 294 293 294 295 295 294 293 291 290 289 289 287 284 282 280 279 278 276 275 276 277 277 275 272 271 271 271 270 268 266 265 265
Height
5885 5884 5883 5882 5881 5881 5880 5880 5879 5879 5878 5877 5877 5877 5876 5876 5875 5875 5874 5874 5874 5874 5874 5874 5874 5874 5873 5873 5873 5873 5873 5873 5873 5873 5874 5874 5874 5874 5874 5875 5875 5875 5875
5885 5884 5883 5881 5880 5880 5879 5879 5878 5877 5877 5876 5876 5875 5874 5874 5873 5872 5872 5872 5872 5872 5872 5872 5871 5871 5871 5871 5870 5870 5870 5870 5870 5870 5871 5871 5871 5872 5872 5872 5872 5873 5873
5884 5883 5882 5881 5880 5879 5878 5877 5877 5876 5875 5875 5874 5873 5872 5872 5871 5871 5870 5869 5869 5869 5869 5869 5868 5868 5868 5868 5868 5867 5867 5868 5868 5868 5868 5868 5868 5869 5869 5869 5870 5870 5871
5883 5882 5881 5879 5878 5877 5877 5876 5875 5874 5874 5873 5872 5871 5870 5869 5869 5868 5868 5867 5867 5866 5866 5866 5866 5865 5865 5865 5865 5865 5864 5864 5865 5865 5865 5865 5865 5865 5866 5866 5867 5867 5868
5881 5880 5879 5878 5877 5876 5875 5874 5873 5873 5872 5871 5869 5868 5868 5867 5866 5866 5865 5864 5864 5864 5863 5863 5863 5862 5862 5862 5862 5862 5861 5861 5861 5862 5862 5862 5862 5862 5863 5863 5864 5864 5865
5880 5879 5877 5876 5875 5874 5873 5872 5871 5870 5869 5868 5867 5866 5865 5865 5864 5863 5862 5862 5861 5860 5860 5859 5859 5859 5859 5859 5858 5858 5858 5858 5858 5858 5858 5858 5859 5859 5859 5860 5860 5861 5862
5878 5877 5875 5874 5873 5872 5871 5870 5869 5868 5867 5866 5865 5864 5863 5862 5861 5860 5859 5859 5858 5857 5856 5856 5856 5855 5855 5855 5855 5854 5854 5854 5854 5855 5855 5855 5855 5855 5855 5856 5857 5857 5858
5876 5875 5873 5872 5871 5870 5868 5867 5866 5865 5864 5863 5862 5861 5860 5860 5858 5857 5856 5856 5855 5854 5853 5852 5852 5851 5851 5851 5851 5851 5851 5851 5850 5851 5851 5851 5851 5851 5851 5852 5853 5853 5854
5874 5873 5871 5870 5868 5867 5866 5864 5863 5862 5861 5860 5859 5858 5857 5856 5855 5855 5853 5852 5851 5850 5849 5848 5848 5847 5847 5847 5847 5847 5846 5846 5846 5846 5846 5847 5847 5847 5847 5848 5849 5849 5850
5872 5870 5869 5867 5866 5864 5863 5861 5860 5859 5858 5856 5855 5854 5854 5853 5852 5851 5850 5849 5848 5847 5846 5845 5844 5843 5843 5842 5842 5842 5842 5842 5842 5842 5842 5842 5843 5843 5843 5844 5844 5845 5846
5870 5868 5866 5864 5863 5861 5860 5858 5857 5856 5855 5854 5852 5851 5850 5849 5848 5847 5846 5845 5844 5843 5842 5841 5840 5840 5839 5838 5838 5837 5837 5837 5837 5837 5838 5838 5838 5838 5839 5839 5840 5841 5841
5867 5865 5863 5861 5860 5858 5857 5855 5854 5852 5851 5850 5849 5847 5846 5845 5844 5843 5842 5841 5840 5839 5838 5837 5836 5836 5835 5834 5833 5833 5833 5833 5832 5832 5832 5832 5832 5833 5834 5834 5835 5836 5836
5864 5862 5860 5858 5857 5855 5853 5851 5850 5849 5847 5846 5845 5843 5842 5841 5839 5838 5838 5836 5835 5834 5833 5832 5832 5831 5831 5830 5829 5828 5828 5827 5827 5827 5827 5827 5827 5828 5828 5829 5829 5830 5831
5861 5859 5857 5855 5853 5851 5849 5848 5846 5845 5843 5841 5840 5839 5838 5836 5835 5834 5833 5831 5830 5829 5828 5827 5826 5826 5825 5824 5824 5823 5822 5821 5821 5821 5821 5821 5822 5822 5823 5823 5824 5825 5825
5857 5855 5853 5851 5849 5847 5845 5843 5842 5840 5839 5837 5835 5834 5833 5831 5830 5829 5827 5826 5825 5824 5823 5822 5821 5820 5819 5818 5817 5817 5816 5815 5815 5814 5814 5814 5815 5816 5817 5817 5818 5819 5820
5853 5851 5849 5847 5844 5842 5840 5838 5837 5835 5834 5832 5831 5829 5827 5825 5824 5823 5821 5820 5819 5818 5817 5816 5815 5814 5812 5812 5811 5810 5810 5809 5808 5808 5808 5808 5808 5809 5810 5811 5811 5812 5813
5848 5847 5845 5842 5840 5838 5836 5833 5832 5830 5829 5827 5825 5824 5822 5820 5818 5816 5815 5813 5812 5811 5810 5809 5808 5807 5806 5805 5804 5804 5803 5802 5802 5801 5801 5801 5802 5802 5803 5804 5804 5805 5806
5844 5842 5840 5837 5835 5833 5831 5829 5827 5825 5823 5821 5820 5818 5816 5814 5812 5810 5808 5807 5805 5804 5803 5802 5801 5800 5799 5798 5797 5797 5796 5796 5795 5794 5794 5794 5794 5795 5795 5796 5797 5797 5798
5839 5837 5835 5832 5831 5828 5827 5824 5822 5820 5818 5816 5814 5812 5810 5808 5806 5804 5802 5800 5798 5796 5795 5794 5793 5792 5791 5791 5790 5789 5789 5788 5788 5787 5787 5787 5786 5787 5787 5788 5788 5789 5789
5834 5832 5830 5827 5825 5823 5821 5819 5817 5814 5812 5810 5808 5805 5803 5801 5799 5797 5795 5793 5791 5789 5788 5786 5785 5784 5783 5782 5782 5781 5780 5780 5779 5779 5778 5778 5778 5778 5778 5779 5779 5780 5780
5828 5826 5824 5821 5819 5817 5815 5813 5810 5808 5806 5804 5801 5799 5797 5794 5792 5790 5787 5785 5783 5781 5780 5778 5777 5776 5775 5774 5774 5773 5772 5771 5771 5770 5770 5770 5770 5770 5770 5770 5770 5770 5771
5823 5820 5818 5815 5813 5811 5809 5806 5804 5802 5800 5797 5795 5792 5790 5787 5785 5782 5780 5778 5776 5774 5772 5771 5769 5768 5767 5766 5765 5764 5763 5763 5763 5763 5762 5761 5761 5761 5761 5761 5761 5762 5762
5816 5813 5811 5809 5807 5804 5802 5800 5797 5795 5793 5790 5787 5785 5782 5780 5778 5775 5773 5771 5768 5766 5765 5763 5761 5760 5759 5758 5757 5756 5755 5754 5754 5754 5753 5753 5753 5752 5752 5752 5752 5752 5752
5809 5806 5804 5802 5800 5797 5795 5793 5790 5788 5785 5783 5780 5777 5775 5773 5770 5767 5765 5763 5760 5758 5756 5755 5754 5752 5751 5749 5748 5748 5747 5746 5745 5745 5744 5744 5744 5744 5743 5743 5743 5743 5743
5801 5799 5797 5795 5792 5790 5787 5785 5783 5780 5778 5775 5772 5770 5767 5765 5762 5759 5757 5755 5752 5750 5748 5746 5745 5743 5742 5741 5740 5739 5738 5738 5737 5736 5735 5735 5735 5735 5735 5734 5733 5733 5733
5793 5791 5789 5787 5785 5782 5779 5777 5774 5772 5770 5767 5764 5762 5759 5756 5754 5751 5749 5747 5744 5742 5740 5738 5736 5735 5734 5732 5731 5730 5730 5729 5728 5727 5727 5726 5726 5725 5725 5725 5724 5724 5724